Location: Unspecified
(54.1780°N, 0.0000°E)
Time: 10:42:47
(UTC+00:00)

S-56A Canister/Altair - Pass Details

Date: 17 June 2019
Orbit: 632 x 2500 km, 38.9° (Epoch: 18 July)

Event Time Altitude Azimuth Distance (km) Brightness Sun altitude
Rises 20:25:29 0° 246° (WSW) 3,461 11.2 0.3°
Reaches altitude 10° 20:29:38 10° 219° (SW) 2,250 9.9 -0.2°
Maximum altitude 20:31:49 13° 193° (SSW) 1,957 9.3 -0.4°
Drops below altitude 10° 20:33:52 10° 166° (SSE) 2,065 9.2 -0.6°
Enters shadow 20:36:55 - 139° (SE) 2,790 9.7 -0.9°
Sets 20:37:19 0° 136° (SE) 2,912 - -1.0°
